Regional Weather Roundup
Issued by NWS

Home | Current Version | Previous Version | Graphics & Text | Print | Product List | Glossary On
Versions: 1 2 3 4 5 6 7 8 9 10 11 12 13 14 15 16 17 18 19 20 21 22 23 24 25 26 27 28 29 30 31 32 33 34 35 36 37 38 39 40 41 42 43 44 45 46 47 48 49 50
495
ASUS43 KMPX 212001
RWRMN
WEATHER ROUNDUP FOR MINNESOTA
NATIONAL WEATHER SERVICE TWIN CITIES/CHANHASSEN MN
300 PM CDT SAT APR 21 2018


NOTE: "FAIR" INDICATES FEW OR NO CLOUDS BELOW 12,000 FEET WITH NO
SIGNIFICANT WEATHER AND/OR OBSTRUCTIONS TO VISIBILITY. N/A MEANS
CURRENT SKY AND/OR WEATHER CONDITIONS ARE NOT AVAILABLE.

MNZ060>063-068>070-212100-
   Twin Cities Metro

CITY           SKY/WX    TMP DP  RH WIND       PRES   REMARKS
TWIN CITIES    FAIR      58  21  24 CALM      30.36F
ST PAUL        FAIR      58  20  22 N7        30.37F
CRYSTAL        FAIR      57  19  22 NE5       30.36S
BLAINE         MOSUNNY   57  16  19 CALM      30.37F
LAKEVILLE      FAIR      54  36  50 S6        30.38S
EDEN PRAIRIE   FAIR      56  21  25 VRB6      30.36S
SOUTH ST PAUL  FAIR      57  22  26 CALM      30.36F
LAKE ELMO      FAIR      55  21  26 W3        30.38F
$$
MNZ001>005-007-008-013>017-022>024-027-028-212100-
   Northwest Minnesota

CITY           SKY/WX    TMP DP  RH WIND       PRES   REMARKS
BEMIDJI        FAIR      57  32  38 CALM      30.30F
HALLOCK        FAIR      61  48  63 S20G25    30.25S
ROSEAU         FAIR      61  45  55 SW10      30.27F
WARROAD        FAIR      61  41  48 SW9       30.28F
THIEF RVR FALL FAIR      57  42  57 SW14      30.29F
CROOKSTON      FAIR      57  41  54 SW12      30.30S
FOSSTON        FAIR      57  34  41 SW9       30.30F
DETROIT LAKES  FAIR      59  30  33 CALM      30.32F
MOORHEAD       FAIR      57  39  51 SW6       30.31F
PARK RAPIDS    FAIR      56  32  40 S9        30.31F
MAHNOMEN       FAIR      58  33  39 S8        30.30F
$$
MNZ006-009>011-018-025>026-212100-
   North Central Minnesota

CITY           SKY/WX    TMP DP  RH WIND       PRES   REMARKS
BAUDETTE       FAIR      59  25  27 S8        30.28F
FLAG ISLAND    FAIR      52  27  37 SE8       30.27F
INTL FALLS     FAIR      60  26  27 SW8       30.29F
WASKISH        CLOUDY    54  28  37 W8        30.30F
BIG FORK       FAIR      59  27  29 SW5       30.31F
LONGVILLE      FAIR      57  25  28 W7        30.33S
GRAND RAPIDS   FAIR      55  24  30 VRB3      30.34F
CRANE LAKE     FAIR      57  18  21 S3        30.32F
ORR            FAIR      61  16  17 SE3       30.29F
COOK           FAIR      59  25  27 S5        30.32F
WALKER         FAIR      54  29  37 E5        30.32S
$$
MNZ012-019>021-037-212100-
   Northeast Minnesota

CITY           SKY/WX    TMP DP  RH WIND       PRES   REMARKS
DULUTH         FAIR      56  18  22 NW5       30.34F
ELY            FAIR      57  18  21 W6        30.30F
HIBBING        FAIR      57  20  23 E5        30.32F
EVELETH        FAIR      58  20  23 CALM      30.33F
DULUTH HARBOR  FAIR      50  27  40 NE8       30.36F
TWO HARBORS    FAIR      63  30  29 S7        30.33F
SILVER BAY     FAIR      57  16  19 SE8       30.33F
GRAND MARAIS     N/A     39  34  82 S3        30.36F
G MARAIS ARPRT FAIR      52  18  25 S10       30.35S
$$
MNZ029>031-032-039>041-046>048-054>057-064-212100-
   West Central Minnesota

CITY           SKY/WX    TMP DP  RH WIND       PRES   REMARKS
FERGUS FALLS   FAIR      57  39  51 S14       30.31S
WHEATON        SUNNY     57  37  47 SE12G18   30.34F
MORRIS         SUNNY     55  36  47 S9        30.34F
ALEXANDRIA     FAIR      59  31  34 S13       30.35S
ELBOW LAKE     FAIR      57  35  43 S14       30.34F
WADENA         FAIR      57  30  35 S3        30.33S
GLENWOOD       FAIR      57  32  38 SW9       30.35F
APPLETON       SUNNY     55  32  41 SE8G16    30.35F
BENSON         SUNNY     57  36  44 SW9       30.36F
ORTONVILLE     SUNNY     55  36  47 S10       30.34F
MADISON        SUNNY     54  39  58 SE8       30.36S
WILLMAR        FAIR      55  36  47 SE5       30.38F
$$
MNZ033>034-036-042>043-049>051-058-059-212100-
   Central Minnesota

CITY           SKY/WX    TMP DP  RH WIND       PRES   REMARKS
ST CLOUD       FAIR      56  31  38 CALM      30.36S
SAUK CENTRE    FAIR      54  34  46 S8        30.35F
PAYNESVILLE    FAIR      55  34  45 SE6       30.36F
AITKIN         FAIR      54  14  20 S5        30.33F
PINE RIVER     FAIR      54  30  40 CALM      30.35F
BRAINERD       FAIR      56  27  32 N3        30.34F
STAPLES        FAIR      55  27  33 NW3       30.34S
LONG PRAIRIE   FAIR      55  32  41 S9        30.35S
LITTLE FALLS   FAIR      54  21  28 W5        30.36S
LITCHFIELD     FAIR      55  34  44 SE3       30.37F
BUFFALO        FAIR      54  26  34 CALM      30.38F
MAPLE LAKE     FAIR      55  32  41 CALM      30.38F
HUTCHINSON     FAIR      53  29  39 E5        30.38F
$$
MNZ037-044-045-052-053-212100-
   East Central Minnesota

CITY           SKY/WX    TMP DP  RH WIND       PRES   REMARKS
PRINCETON      FAIR      59  27  29 N6        30.37S
MORA           FAIR      54  21  28 E3        30.38F
CAMBRIDGE      FAIR      57  34  41 W6        30.37S
RUSH CITY      FAIR      56  22  27 SW7       30.37F
MOOSE LAKE     FAIR      55  23  28 W5        30.33F
HINCKLEY       FAIR      55  19  24 SW3       30.36S
CLOQUET        FAIR      55   7  14 S6        30.34F
MCGREGOR       FAIR      55  23  28 E3        30.34F
$$
MNZ071>073-080-081-089-090-097-098-212100-
   Southwest Minnesota

CITY           SKY/WX    TMP DP  RH WIND       PRES   REMARKS
MONTEVIDEO     SUNNY     55  36  47 SW9       30.36F
GRANITE FALLS  SUNNY     53  36  52 SE8       30.37F
CANBY          CLOUDY    50  37  59 E3        30.36F
MARSHALL       CLOUDY    49  35  58 SE5       30.35
REDWOOD FALLS  CLOUDY    51  35  54 S6        30.35F
OLIVIA         SUNNY     54  39  58 SE7       30.35F
PIPESTONE      CLOUDY   N/A N/A N/A E7        30.33S
WINDOM         PTSUNNY   45  25  45 NE7       30.35F
WORTHINGTON    CLOUDY    44  37  76 E5        30.34F
JACKSON        CLOUDY    41  32  70 NE5       30.35F
TRACY          CLOUDY    47  34  60 E6        30.35F
SLAYTON        CLOUDY    42  32  65 NE6       30.35F
$$
MNZ065>067-074>077-082>085-091>093-212100-
   South Central Minnesota

CITY           SKY/WX    TMP DP  RH WIND       PRES   REMARKS
MANKATO        CLOUDY    50  37  61 SE6       30.37F
NEW ULM        CLOUDY    48  23  37 E3        30.36
ST JAMES       CLOUDY    43  30  61 N5        30.37F
FAIRMONT       MOSUNNY   45  32  60 NE3       30.36F
GLENCOE        FAIR      53  26  35 SE3       30.37F
FARIBAULT      PTSUNNY   54  36  50 CALM      30.37F
OWATONNA       PTSUNNY   52  36  54 S3        30.37F
WASECA         CLOUDY    50  36  57 E3        30.38F
ALBERT LEA     PTSUNNY   48  28  46 E5        30.36F
$$
MNZ078>079-086>088-094>096-212100-
   Southeast Minnesota

CITY           SKY/WX    TMP DP  RH WIND       PRES   REMARKS
ROCHESTER      CLOUDY    50  35  56 CALM      30.38F
RED WING       FAIR      59  23  25 S9        30.36F
STANTON        FAIR      56  35  45 S8        30.36F
DODGE CENTER   FAIR      48  36  61 CALM      30.37F
WINONA         CLOUDY    55  32  41 SW9       30.36F
AUSTIN         CLOUDY    46  36  66 CALM      30.36F
PRESTON        CLOUDY    49  33  52 CALM      30.38F
$$
ABBREVIATIONS USED IN REMARKS
   TC - TEMPERATURES IN CELSIUS
  WCI - WIND CHILL INDEX
   HX - HEAT INDEX
  VSB - VISIBILITY
$$




USA.gov is the U.S. government's official web portal to all federal, state and local government web resources and services.